Regional Weather Roundup
Issued by NWS

Home | Current Version | Previous Version | Text Only | Print | Product List | Glossary On
Versions: 1 2 3 4 5 6 7 8 9 10 11 12 13 14 15 16 17 18 19 20 21 22 23 24 25 26 27 28 29 30 31 32 33 34 35 36 37 38 39 40 41 42 43 44 45 46 47 48 49 50
000
ASCA44 KEWX 220920
RWRMX

LATIN AMERICA AND CARIBBEAN REGIONAL WEATHER ROUNDUP
NATIONAL WEATHER SERVICE AUSTIN/SAN ANTONIO TX
400 AM CDT SUN APR 22 2018

NOTE: "FAIR" INDICATED FEW OR NO CLOUDS BELOW 12,000 FEET WITH NO
SIGNIFICANT WEATHER AND/OR OBSTRUCTIONS TO VISIBILITY.

BAJA CALIFORNIA

CITY           SKY/WX    TMP DP  RH WIND       PRES   REMARKS
MEXICALI         N/A    N/A N/A N/A MISG        N/A
S.J. DEL CABO    N/A    N/A N/A N/A MISG        N/A
TIJUANA        CLEAR     59  54  82 CALM      29.99F

NORTHWESTERN MEXICO

CITY           SKY/WX    TMP DP  RH WIND       PRES   REMARKS
HERMOSILLO     MOCLDY    75  37  25 E3        29.91F

NORTHEASTERN MEXICO

CITY           SKY/WX    TMP DP  RH WIND       PRES   REMARKS
MONCLOVA         N/A    N/A N/A N/A MISG        N/A
MONTERREY      MOCLDY    72  63  73 S5        29.95F
REYNOSA          N/A    N/A N/A N/A MISG        N/A
CD. VICTORIA     N/A    N/A N/A N/A MISG        N/A

WESTERN MEXICO

CITY           SKY/WX    TMP DP  RH WIND       PRES   REMARKS
AGUASCALIENTES   N/A    N/A N/A N/A MISG        N/A
COLIMA           N/A    N/A N/A N/A MISG        N/A
GUADALAJARA    CLEAR     63  45  51 CALM      30.14F
MAZATLAN       MOCLDY    63  59  88 CALM      29.90F
P. VALLARTA    PTCLDY    70  70 100 CALM      29.89F
URUAPAN          N/A    N/A N/A N/A MISG        N/A
ZACATECAS      CLEAR     57  32  38 S8        30.23

CENTRAL MEXICO

CITY           SKY/WX    TMP DP  RH WIND       PRES   REMARKS
CUERNAVACA       N/A    N/A N/A N/A MISG        N/A
MEXICO CITY    PTCLDY    61  50  67 CALM      30.28F
MORELIA        CLEAR     59  48  67 CALM      30.19
POZA RICA        N/A    N/A N/A N/A MISG        N/A
S. LUIS POTOSI PTCLDY    57  46  67 N5        30.19F
TOLUCA         PTCLDY    52  48  87 CALM      30.36S

SOUTHERN MEXICO

CITY           SKY/WX    TMP DP  RH WIND       PRES   REMARKS
ACAPULCO       CLEAR     79  75  89 CALM      29.86F
B. DE HUATULCO   N/A    N/A N/A N/A MISG        N/A
P. ESCONDIDO     N/A    N/A N/A N/A MISG        N/A
VERACRUZ         N/A    N/A N/A N/A MISG        N/A

YUCATAN PENINSULA

CITY           SKY/WX    TMP DP  RH WIND       PRES   REMARKS
CAMPECHE       CLEAR     79  73  83 E14       29.85
CHETUMAL       PTCLDY    81  73  78 E12       29.91
CD. DEL CARMEN   N/A    N/A N/A N/A MISG        N/A
COZUMEL        PTCLDY    75  73  94 SE6       29.93
MERIDA         CLEAR     77  72  83 SE12      29.91F
MINATITLAN     CLEAR     79  68  69 CALM      29.81
TAPACHULA      PTCLDY    84  75  74 CALM      29.84F HX  92
VILLAHERMOSA   CLEAR     75  70  83 E7        29.85

CENTRAL AMERICA

CITY           SKY/WX    TMP DP  RH WIND       PRES   REMARKS
MANAGUA        MOSUNNY   79  68  69 SE5       29.83S

CARIBBEAN

CITY           SKY/WX    TMP DP  RH WIND       PRES   REMARKS
CURACAO          N/A     79  73  83 E13       29.89S
KINGSTON       PTCLDY    79  73  83 N8        29.92S
NASSAU         PTCLDY    77  73  88 E5        30.05
SAN JUAN       PTCLDY    75  72  88 E7        30.01S
SANTO DOMINGO  PTCLDY    72  70  94 NE6       29.97S
ST. CROIX      LGT RAIN  75  70  83 NE13      30.01
ST. THOMAS     CLEAR     77  68  73 E12       30.00

$$




USA.gov is the U.S. government's official web portal to all federal, state and local government web resources and services.